Frankfort, KY

8:27 PM EDT on October 17, 2017 (GMT -0400)
Capital City

Weather History for KFFT - November, 2013

Change the Weather History Date:

Thursday, November 7, 2013

  Actual Average Record
Temperature  
Mean Temperature 42 °F 49 °F  
Max Temperature 50 °F 60 °F 79 °F (1938)
Min Temperature 33 °F 39 °F 19 °F (1953)
Degree Days  
Heating Degree Days 23 16  
Month to date heating degree days 99 103  
Since 1 July heating degree days 438 444  
Cooling Degree Days 0 0  
Month to date cooling degree days 0 0  
Year to date cooling degree days 1127 1154  
Moisture  
Dew Point 35 °F    
Average Humidity 68    
Maximum Humidity 96    
Minimum Humidity 39    
Precipitation  
Precipitation 0.08 in 0.11 in 1.04 in (1951)
Month to date precipitation 0.38 0.85  
Year to date precipitation 42.93 38.73  
Sea Level Pressure  
Sea Level Pressure 30.20 in    
Wind  
Wind Speed 6 mph (NW)    
Max Wind Speed 15 mph    
Max Gust Speed 22 mph    
Visibility 10 miles    
Events Rain    
T = Trace of Precipitation, MM = Missing Value Source: NWS Daily Summary

Daily Weather History Graph

Daily Weather History Graph

Search for Another Location

Airport or City:

Trip Planner

Search our weather history database for the weather conditions in past years. The results will help you decide how hot, cold, wet, or windy it might be!

Date:

Astronomy

Nov. 07, 2013 Rise Set
Actual Time 7:12 AM EST 5:33 PM EST
Civil Twilight 6:44 AM EST 6:01 PM EST
Nautical Twilight 6:13 AM EST 6:32 PM EST
Astronomical Twilight 5:42 AM EST 7:03 PM EST
Moon 11:19 AM EST (11/7) 9:45 PM EST (11/7)
Length of Visible Light 11h 16m
Length of Day
10h 21m
Waxing Crescent, 22% of the Moon is Illuminated
Nov 7
Waxing Crescent
Nov 10
First Quarter
Nov 17
Full
Nov 25
Last Quarter
Dec 2
New

Hourly Weather History & Observations

Time (EST) Temp. Windchill Dew Point Humidity Pressure Visibility Wind Dir Wind Speed Gust Speed Precip Events Conditions
12:45 AM 46.4 °F 40.7 °F 44.6 °F 93% 30.08 in 10.0 mi WNW 12.7 mph 19.6 mph 0.01 in Rain Light Rain
12:53 AM 46.9 °F - 45.0 °F 93% 30.06 in 10.0 mi NW 9.2 mph 19.6 mph 0.02 in Rain Light Rain
1:07 AM 46.4 °F 42.4 °F 44.6 °F 93% 30.08 in 10.0 mi WNW 8.1 mph 16.1 mph 0.00 in Rain Light Rain
1:36 AM 44.6 °F 38.4 °F 42.8 °F 93% 30.08 in 10.0 mi NNW 12.7 mph 20.7 mph 0.00 in   Overcast
1:53 AM 45.0 °F 39.7 °F 43.0 °F 93% 30.09 in 10.0 mi NW 10.4 mph 17.3 mph 0.00 in   Overcast
2:30 AM 42.8 °F 37.5 °F 41.0 °F 93% 30.10 in 5.0 mi NW 9.2 mph 17.3 mph 0.05 in Rain Light Rain
2:48 AM 42.8 °F 38.0 °F 41.0 °F 93% 30.10 in 10.0 mi NNW 8.1 mph - 0.06 in Rain Light Rain
2:53 AM 43.0 °F 38.8 °F 41.0 °F 93% 30.10 in 10.0 mi NW 6.9 mph - 0.06 in   Overcast
3:53 AM 43.0 °F 38.8 °F 41.0 °F 93% 30.12 in 10.0 mi NNW 6.9 mph - N/A   Overcast
4:38 AM 42.8 °F 39.3 °F 39.2 °F 87% 30.14 in 10.0 mi NW 5.8 mph - N/A   Overcast
4:53 AM 43.0 °F 38.2 °F 39.9 °F 89% 30.14 in 10.0 mi NW 8.1 mph - N/A   Overcast
5:03 AM 42.8 °F 36.2 °F 39.2 °F 87% 30.15 in 10.0 mi NNW 12.7 mph 19.6 mph N/A   Overcast
5:28 AM 42.8 °F 38.0 °F 39.2 °F 87% 30.16 in 10.0 mi NNW 8.1 mph - N/A   Overcast
5:53 AM 43.0 °F 37.2 °F 37.9 °F 82% 30.17 in 10.0 mi NNW 10.4 mph 19.6 mph N/A   Overcast
6:53 AM 42.1 °F 38.4 °F 37.0 °F 82% 30.19 in 10.0 mi WNW 5.8 mph - N/A   Overcast
7:27 AM 39.2 °F 35.0 °F 35.6 °F 87% 30.21 in 10.0 mi WNW 5.8 mph - N/A   Scattered Clouds
7:53 AM 39.9 °F 35.1 °F 37.0 °F 89% 30.23 in 10.0 mi WNW 6.9 mph - N/A   Clear
8:41 AM 39.2 °F 33.0 °F 37.4 °F 93% 30.26 in 10.0 mi WNW 9.2 mph - N/A   Partly Cloudy
8:53 AM 41.0 °F 34.7 °F 37.0 °F 86% 30.27 in 10.0 mi WNW 10.4 mph 16.1 mph N/A   Scattered Clouds
9:41 AM 41.0 °F 36.4 °F 35.6 °F 81% 30.28 in 10.0 mi West 6.9 mph - N/A   Mostly Cloudy
9:53 AM 41.0 °F 36.4 °F 36.0 °F 82% 30.29 in 10.0 mi NW 6.9 mph - N/A   Mostly Cloudy
10:42 AM 44.6 °F 42.2 °F 35.6 °F 71% 30.29 in 10.0 mi Variable 4.6 mph - N/A   Scattered Clouds
10:53 AM 44.1 °F 40.1 °F 35.1 °F 71% 30.29 in 10.0 mi NW 6.9 mph - N/A   Scattered Clouds
11:53 AM 46.9 °F - 32.0 °F 56% 30.29 in 10.0 mi NNW 8.1 mph - N/A   Clear
12:53 PM 48.9 °F - 27.0 °F 43% 30.26 in 10.0 mi Variable 4.6 mph - N/A   Clear
1:53 PM 50.0 °F - 27.0 °F 41% 30.25 in 10.0 mi NNW 10.4 mph - N/A   Clear
2:53 PM 48.9 °F - 27.0 °F 43% 30.25 in 10.0 mi Variable 4.6 mph 16.1 mph N/A   Clear
3:53 PM 48.9 °F - 24.1 °F 38% 30.26 in 10.0 mi WNW 9.2 mph - N/A   Clear
4:53 PM 46.9 °F - 24.1 °F 41% 30.26 in 10.0 mi Variable 6.9 mph - N/A   Clear
5:53 PM 42.1 °F - 26.1 °F 53% 30.25 in 10.0 mi Calm Calm - N/A   Clear
6:53 PM 37.9 °F - 28.0 °F 68% 30.26 in 10.0 mi Calm Calm - N/A   Clear
7:53 PM 35.1 °F 32.2 °F 30.0 °F 82% 30.27 in 10.0 mi WSW 3.5 mph - N/A   Clear
8:53 PM 39.0 °F 36.8 °F 27.0 °F 62% 30.27 in 10.0 mi West 3.5 mph - N/A   Clear
9:53 PM 35.1 °F - 27.0 °F 72% 30.28 in 10.0 mi Calm Calm - N/A   Clear
10:53 PM 37.9 °F 34.4 °F 26.1 °F 62% 30.27 in 10.0 mi WSW 4.6 mph - N/A   Partly Cloudy
11:53 PM 33.1 °F 26.9 °F 27.0 °F 78% 30.27 in 10.0 mi SW 6.9 mph - N/A   Clear